Retour au catalogue

TRANSIT 4A

ActifNavigationLEO
NORAD 116·PAYLOAD·🇺🇸 United States

Lancé Jun 29, 1961 depuis Cape Canaveral Space Force Station

Loading…

Prochains Passages (prochaines 24 heures)

TLE

FraisSource: Space-Track

Époque: Sep 8, 2026, 19:07 UTC

1   116U 61015A   26251.79671010 -.00000009  00000-0  51892-4 0  9997
2   116  66.8096  46.2326 0079544 218.2865 141.2551 13.92343106308348

Suivez TRANSIT 4A en temps réel avec AllMySat

Download on the App Store